world map with BUG marked

BUG - Airport

This information may not be accurate or current and is not valid for navigation or flight planning. No warranty of fitness for any purpose is made or implied.

flag of Angola

Donate via PayPal

Additional information is available on the NEW Great Circle Mapper

Location
City:  Benguela, Benguela, Angola
Name:Gen V Deslandes
ICAO / IATA:FNBG / BUG

Details
Type:Airport (Aerodrome, Airfield)
Latitude:12°36'32"S (-12.609024)
Longitude:13°24'13"E (13.403711)
Datum:other
Elevation:118 ft (36 m)
Runways:1
Longest:5315 × 100 ft (1620 × 30.5 m)

Time
Timezone:UTC+1 (DST+3)
Local Time:

Weather
METAR:FNBG  211400Z 33006KT 9999 SCT020 BKN100 31/22 Q1011
TAF:FNBG  211045Z 2112/2124 27010KT 9999 SCT018 TEMPO 2113/2118 FEW020 FEW025TCU

Related Locations
Nearby:
Farthest:PLPA: 11880 mi / 19119 km
Palmyra Island Atoll [Palmyra Airport (Cooper)], UM

Find:

   beyond  
but within

Other Information
Maps:
Sources:

  


 


Great Circle Mapper   Great Circle Mapper
Great Circle Mapper FAQ   Great Circle Mapper FAQ
  Karl's Home Page
KLSē   KLSē Home
   GC on Facebook
Airlines of the World   Airlines of the World
Donate via PayPal


Copyright © 2004-2019, Karl L. Swartz. All rights reserved.
All trademarks mentioned herein belong to their respective owners.

Please see credits for attribution and copyright information.

Karl Swartz <karl@kls2.com>
  Powered by FreeBSD
Valid HTML 4.01!
Labeled with ICRA
hCard Microformat
Geo Microformat